| time (UTC) | temp F | wind direction | speed MPH | gust MPH | rain 1hr in | rain 24hr in | rain mn in | humidity % | barometer mb |
| 20260507153055 | 60 | 210 | 5.0 | 10.0 | 0.00 | 0.00 | 0.00 | 67 | 1017.0 |
| 20260507151556 | 60 | 247 | 4.0 | 10.0 | 0.00 | 0.00 | 0.00 | 67 | 1016.8 |
| 20260507150057 | 60 | 205 | 6.0 | 16.0 | 0.00 | 0.00 | 0.00 | 67 | 1016.8 |
| 20260507144602 | 59 | 217 | 7.0 | 12.0 | 0.00 | 0.00 | 0.00 | 68 | 1016.6 |
| 20260507143114 | 59 | 205 | 7.0 | 13.0 | 0.00 | 0.00 | 0.00 | 67 | 1016.4 |
| 20260507141556 | 60 | 221 | 9.0 | 18.0 | 0.00 | 0.00 | 0.00 | 66 | 1016.3 |
| 20260507140055 | 59 | 200 | 8.0 | 16.0 | 0.00 | 0.00 | 0.00 | 67 | 1016.1 |
| 20260507134556 | 59 | 198 | 8.0 | 16.0 | 0.00 | 0.00 | 0.00 | 66 | 1015.9 |
| 20260507133103 | 58 | 195 | 5.0 | 12.0 | 0.00 | 0.00 | 0.00 | 69 | 1015.8 |
| 20260507131602 | 58 | 213 | 6.0 | 10.0 | 0.00 | 0.00 | 0.00 | 71 | 1015.7 |
| 20260507130058 | 57 | 201 | 6.0 | 15.0 | 0.00 | 0.00 | 0.00 | 72 | 1015.7 |
| 20260507124604 | 56 | 163 | 4.0 | 10.0 | 0.00 | 0.00 | 0.00 | 74 | 1015.7 |
| 20260507123055 | 56 | 64 | 0.0 | 3.0 | 0.00 | 0.00 | 0.00 | 73 | 1015.5 |
| 20260507121556 | 57 | 146 | 2.0 | 8.0 | 0.00 | 0.00 | 0.00 | 73 | 1015.5 |
| 20260507120053 | 56 | 137 | 2.0 | 6.0 | 0.00 | 0.00 | 0.00 | 73 | 1015.5 |
| 20260507114608 | 57 | 82 | 2.0 | 6.0 | 0.00 | 0.00 | 0.00 | 73 | 1015.5 |
| 20260507113117 | 57 | 167 | 5.0 | 8.0 | 0.00 | 0.00 | 0.00 | 72 | 1015.5 |
| 20260507111557 | 58 | 86 | 1.0 | 7.0 | 0.00 | 0.00 | 0.00 | 70 | 1015.7 |
| 20260507110053 | 58 | 141 | 3.0 | 7.0 | 0.00 | 0.00 | 0.00 | 71 | 1015.7 |
| 20260507104549 | 58 | 146 | 2.0 | 11.0 | 0.00 | 0.00 | 0.00 | 72 | 1015.6 |
| 20260507103056 | 58 | 200 | 7.0 | 11.0 | 0.00 | 0.00 | 0.00 | 73 | 1015.4 |
| 20260507101550 | 57 | 182 | 4.0 | 8.0 | 0.00 | 0.00 | 0.00 | 72 | 1015.6 |
| 20260507100057 | 58 | 265 | 2.0 | 5.0 | 0.00 | 0.00 | 0.00 | 70 | 1015.8 |
| 20260507094552 | 59 | 227 | 3.0 | 8.0 | 0.00 | 0.00 | 0.00 | 69 | 1015.6 |
| 20260507093052 | 60 | 201 | 7.0 | 11.0 | 0.00 | 0.00 | 0.00 | 66 | 1015.6 |
| 20260507091622 | 60 | 207 | 6.0 | 10.0 | 0.00 | 0.00 | 0.00 | 64 | 1015.6 |
| 20260507090058 | 60 | 120 | 3.0 | 7.0 | 0.00 | 0.00 | 0.00 | 63 | 1015.5 |
| 20260507084609 | 61 | 162 | 2.0 | 8.0 | 0.00 | 0.00 | 0.00 | 62 | 1015.5 |
| 20260507083052 | 61 | 221 | 3.0 | 10.0 | 0.00 | 0.00 | 0.00 | 61 | 1015.3 |
| 20260507081600 | 61 | 68 | 1.0 | 4.0 | 0.00 | 0.00 | 0.00 | 60 | 1015.3 |
| 20260507080056 | 62 | 225 | 2.0 | 8.0 | 0.00 | 0.00 | 0.00 | 58 | 1015.0 |
| 20260507074559 | 63 | 246 | 4.0 | 19.0 | 0.00 | 0.00 | 0.00 | 57 | 1014.9 |
| 20260507073057 | 62 | 230 | 7.0 | 17.0 | 0.00 | 0.00 | 0.00 | 58 | 1014.7 |
| 20260507071554 | 63 | 185 | 5.0 | 9.0 | 0.00 | 0.00 | 0.00 | 56 | 1014.7 |
| 20260507070052 | 63 | 225 | 4.0 | 11.0 | 0.00 | 0.00 | 0.00 | 57 | 1014.7 |
| 20260507064554 | 63 | 188 | 1.0 | 9.0 | 0.00 | 0.00 | 0.00 | 56 | 1014.8 |
| 20260507063052 | 64 | 162 | 1.0 | 3.0 | 0.00 | 0.00 | 0.00 | 55 | 1014.7 |
| 20260507061553 | 64 | 34 | 2.0 | 15.0 | 0.00 | 0.00 | 0.00 | 54 | 1014.7 |
| 20260507054554 | 65 | 198 | 9.0 | 16.0 | 0.00 | 0.00 | 0.00 | 52 | 1014.2 |
| 20260507053055 | 66 | 223 | 8.0 | 17.0 | 0.00 | 0.00 | 0.00 | 52 | 1014.3 |
| 20260507051554 | 66 | 158 | 7.0 | 13.0 | 0.00 | 0.00 | 0.00 | 52 | 1014.3 |
| 20260507050053 | 66 | 173 | 5.0 | 10.0 | 0.00 | 0.00 | 0.00 | 53 | 1014.3 |
| 20260507044606 | 67 | 207 | 5.0 | 9.0 | 0.00 | 0.00 | 0.00 | 52 | 1014.3 |
| 20260507043109 | 68 | 191 | 6.0 | 11.0 | 0.00 | 0.00 | 0.00 | 51 | 1014.1 |
| 20260507041556 | 68 | 205 | 5.0 | 10.0 | 0.00 | 0.00 | 0.00 | 52 | 1013.9 |
| 20260507040053 | 69 | 192 | 5.0 | 12.0 | 0.00 | 0.00 | 0.00 | 52 | 1013.7 |
| 20260507034557 | 70 | 198 | 6.0 | 11.0 | 0.00 | 0.00 | 0.00 | 51 | 1013.3 |
| 20260507033053 | 72 | 189 | 8.0 | 14.0 | 0.00 | 0.00 | 0.00 | 47 | 1013.1 |
| 20260507031556 | 73 | 171 | 5.0 | 12.0 | 0.00 | 0.00 | 0.00 | 46 | 1012.8 |
| 20260507030056 | 73 | 163 | 8.0 | 13.0 | 0.00 | 0.00 | 0.00 | 45 | 1012.6 |
| 20260507024556 | 74 | 207 | 4.0 | 19.0 | 0.00 | 0.00 | 0.00 | 46 | 1012.5 |
| 20260507023108 | 74 | 232 | 8.0 | 23.0 | 0.00 | 0.00 | 0.00 | 45 | 1012.3 |
| 20260507021555 | 75 | 259 | 6.0 | 11.0 | 0.00 | 0.00 | 0.00 | 45 | 1012.2 |
| 20260507020059 | 75 | 284 | 4.0 | 10.0 | 0.00 | 0.00 | 0.00 | 46 | 1011.7 |
| 20260507014559 | 75 | 201 | 8.0 | 17.0 | 0.00 | 0.00 | 0.00 | 44 | 1011.5 |
| 20260507013050 | 76 | 219 | 9.0 | 18.0 | 0.00 | 0.00 | 0.00 | 45 | 1011.5 |
| 20260507011551 | 77 | 191 | 9.0 | 17.0 | 0.00 | 0.00 | 0.00 | 45 | 1011.4 |
| 20260507010051 | 77 | 221 | 7.0 | 16.0 | 0.00 | 0.00 | 0.00 | 46 | 1011.6 |
| 20260507004552 | 78 | 182 | 5.0 | 13.0 | 0.00 | 0.00 | 0.00 | 45 | 1011.5 |
| 20260507003103 | 78 | 205 | 6.0 | 12.0 | 0.00 | 0.00 | 0.00 | 46 | 1011.5 |
| 20260507001613 | 78 | 205 | 8.0 | 18.0 | 0.00 | 0.00 | 0.00 | 45 | 1011.4 |
| 20260507000052 | 79 | 187 | 8.0 | 14.0 | 0.00 | 0.00 | 0.00 | 46 | 1011.5 |
| 20260506234554 | 80 | 203 | 5.0 | 13.0 | 0.00 | 0.00 | 0.00 | 47 | 1011.4 |
| 20260506233051 | 81 | 192 | 5.0 | 12.0 | 0.00 | 0.00 | 0.00 | 44 | 1011.5 |
| 20260506231604 | 80 | 201 | 8.0 | 13.0 | 0.00 | 0.00 | 0.00 | 45 | 1011.7 |
| 20260506230113 | 81 | 217 | 9.0 | 15.0 | 0.00 | 0.00 | 0.00 | 44 | 1011.8 |
| 20260506224556 | 81 | 207 | 7.0 | 16.0 | 0.00 | 0.00 | 0.00 | 46 | 1011.9 |
| 20260506223052 | 81 | 202 | 8.0 | 14.0 | 0.00 | 0.00 | 0.00 | 41 | 1012.1 |
| 20260506221612 | 81 | 186 | 6.0 | 15.0 | 0.00 | 0.00 | 0.00 | 43 | 1012.1 |
| 20260506220056 | 81 | 248 | 7.0 | 14.0 | 0.00 | 0.00 | 0.00 | 38 | 1012.3 |
| 20260506214554 | 82 | 239 | 7.0 | 13.0 | 0.00 | 0.00 | 0.00 | 35 | 1012.4 |
| 20260506213052 | 81 | 226 | 9.0 | 18.0 | 0.00 | 0.00 | 0.00 | 34 | 1012.6 |
| 20260506211556 | 80 | 237 | 10.0 | 16.0 | 0.00 | 0.00 | 0.00 | 42 | 1012.9 |
| 20260506210059 | 81 | 223 | 9.0 | 24.0 | 0.00 | 0.00 | 0.00 | 36 | 1013.0 |
| 20260506204557 | 81 | 242 | 8.0 | 21.0 | 0.00 | 0.00 | 0.00 | 33 | 1012.9 |
| 20260506203108 | 81 | 233 | 11.0 | 20.0 | 0.00 | 0.00 | 0.00 | 38 | 1012.9 |
| 20260506201558 | 80 | 225 | 10.0 | 19.0 | 0.00 | 0.00 | 0.00 | 42 | 1013.0 |
| 20260506200059 | 80 | 215 | 11.0 | 22.0 | 0.00 | 0.00 | 0.00 | 47 | 1013.0 |
| 20260506194600 | 79 | 195 | 16.0 | 22.0 | 0.00 | 0.00 | 0.00 | 45 | 1013.0 |
| 20260506193104 | 79 | 207 | 13.0 | 21.0 | 0.00 | 0.00 | 0.00 | 41 | 1013.2 |
| 20260506191554 | 79 | 196 | 12.0 | 21.0 | 0.00 | 0.00 | 0.00 | 45 | 1013.2 |
| 20260506190053 | 78 | 175 | 14.0 | 23.0 | 0.00 | 0.00 | 0.00 | 45 | 1013.5 |
| 20260506184554 | 77 | 200 | 15.0 | 23.0 | 0.00 | 0.00 | 0.00 | 44 | 1013.6 |
| 20260506183102 | 76 | 205 | 15.0 | 21.0 | 0.00 | 0.00 | 0.00 | 45 | 1013.8 |
| 20260506181555 | 75 | 191 | 13.0 | 22.0 | 0.00 | 0.00 | 0.00 | 47 | 1014.1 |
| 20260506180057 | 75 | 175 | 11.0 | 19.0 | 0.00 | 0.00 | 0.00 | 48 | 1014.4 |
| 20260506174556 | 74 | 189 | 10.0 | 18.0 | 0.00 | 0.00 | 0.00 | 51 | 1014.7 |
| 20260506173058 | 73 | 223 | 12.0 | 19.0 | 0.00 | 0.00 | 0.00 | 53 | 1014.7 |
| 20260506171553 | 72 | 230 | 7.0 | 15.0 | 0.00 | 0.00 | 0.00 | 57 | 1014.7 |
| 20260506170108 | 71 | 229 | 7.0 | 13.0 | 0.00 | 0.00 | 0.00 | 56 | 1014.9 |
| 20260506164615 | 71 | 227 | 7.0 | 15.0 | 0.00 | 0.00 | 0.00 | 56 | 1014.8 |
| 20260506163101 | 71 | 223 | 6.0 | 11.0 | 0.00 | 0.00 | 0.00 | 59 | 1014.9 |
| 20260506161555 | 71 | 193 | 5.0 | 15.0 | 0.00 | 0.00 | 0.00 | 52 | 1014.9 |
| 20260506160059 | 69 | 207 | 6.0 | 14.0 | 0.00 | 0.00 | 0.00 | 58 | 1014.8 |
| 20260506154638 | 68 | 203 | 9.0 | 14.0 | 0.00 | 0.00 | 0.00 | 62 | 1014.8 |